Weather History for Manhattan, KS

Change the Weather History Date:

Friday, July 19, 2013

  Actual Average Record
Temperature  
Mean Temperature 84 °F 80 °F  
Max Temperature 99 °F 92 °F 106 °F (2006)
Min Temperature 69 °F 67 °F 54 °F (2014)
Degree Days  
Heating Degree Days 0 0  
Month to date heating degree days 0 0  
Since 1 June heating degree days 9 11  
Since 1 July heating degree days 0 0  
Cooling Degree Days 19 15  
Month to date cooling degree days 287 261  
Year to date cooling degree days 741 631  
Since 1 June cooling degree days 605 531  
Growing Degree Days 35 (Base 50)    
Moisture  
Dew Point 66 °F    
Average Humidity 59    
Maximum Humidity 84    
Minimum Humidity 33    
Precipitation  
Precipitation 0.02 in 0.11 in 0.62 in (2005)
Month to date precipitation 0.46 2.63  
Year to date precipitation 13.25 18.92  
Sea Level Pressure  
Sea Level Pressure 29.91 in    
Wind  
Wind Speed 6 mph (SW)    
Max Wind Speed 16 mph    
Max Gust Speed 22 mph    
Visibility 10 miles    
Events Thunderstorm    
T = Trace of Precipitation, MM = Missing Value Source: NWS Daily Summary

Daily Weather History Graph

Daily Weather History Graph

Search for Another Location

Airport:

Trip Planner

Search our weather history database for the weather conditions in past years. The results will help you decide how hot, cold, wet, or windy it might be!

Date:

Astronomy

Jul. 19, 2013 Rise Set
Actual Time 6:16 AM CDT 8:49 PM CDT
Civil Twilight 5:45 AM CDT 9:20 PM CDT
Nautical Twilight 5:06 AM CDT 9:58 PM CDT
Astronomical Twilight 4:23 AM CDT 10:41 PM CDT
Moon 5:53 PM CDT (7/19) 2:58 AM CDT (7/19)
Length of Visible Light 15h 34m
Length of Day
14h 33m
Waxing Gibbous, 87% of the Moon is Illuminated
Jul 19
Waxing Gibbous
Jul 22
Full
Jul 29
Last Quarter
Aug 6
New
Aug 14
First Quarter

Hourly Weather History & Observations

Time (CDT) Temp. Heat Index Dew Point Humidity Pressure Visibility Wind Dir Wind Speed Gust Speed Precip Events Conditions
12:52 AM 80.1 °F 81.9 °F 64.9 °F 60% 29.97 in 10.0 mi SW 9.2 mph - N/A   Clear
1:52 AM 75.0 °F - 64.9 °F 71% 29.97 in 10.0 mi SW 5.8 mph - N/A   Clear
2:52 AM 73.0 °F - 64.9 °F 76% 29.96 in 10.0 mi SSW 5.8 mph - N/A   Clear
3:52 AM 73.0 °F - 66.0 °F 79% 29.95 in 10.0 mi SSW 5.8 mph - N/A   Clear
4:52 AM 75.0 °F - 66.0 °F 73% 29.93 in 10.0 mi SSW 9.2 mph - N/A   Clear
5:52 AM 73.0 °F - 66.0 °F 79% 29.94 in 10.0 mi SW 6.9 mph - N/A   Clear
6:52 AM 71.1 °F - 66.0 °F 84% 29.95 in 10.0 mi Calm Calm - N/A   Clear
7:52 AM 78.1 °F - 66.9 °F 68% 29.95 in 10.0 mi SW 5.8 mph - N/A   Clear
8:52 AM 82.9 °F 85.4 °F 66.9 °F 58% 29.96 in 10.0 mi SW 10.4 mph - N/A   Clear
9:52 AM 88.0 °F 90.7 °F 66.9 °F 49% 29.96 in 10.0 mi SSW 11.5 mph - N/A   Clear
10:52 AM 91.0 °F 94.3 °F 66.9 °F 45% 29.94 in 10.0 mi SW 10.4 mph - N/A   Clear
11:52 AM 93.9 °F 97.0 °F 66.0 °F 40% 29.94 in 10.0 mi South 8.1 mph 18.4 mph N/A   Clear
12:52 PM 96.1 °F 98.8 °F 64.9 °F 36% 29.91 in 10.0 mi SSW 11.5 mph 18.4 mph N/A   Clear
1:52 PM 96.1 °F 98.8 °F 64.9 °F 36% 29.91 in 10.0 mi Variable 6.9 mph - N/A   Mostly Cloudy
2:52 PM 97.0 °F 99.3 °F 64.0 °F 34% 29.89 in 10.0 mi WSW 9.2 mph - N/A   Partly Cloudy
3:52 PM 99.0 °F 101.7 °F 64.0 °F 32% 29.87 in 10.0 mi WSW 6.9 mph - N/A   Clear
4:52 PM 98.1 °F 100.7 °F 64.0 °F 33% 29.85 in 10.0 mi Variable 5.8 mph - N/A   Mostly Cloudy
5:52 PM 99.0 °F 101.7 °F 64.0 °F 32% 29.83 in 10.0 mi SSW 5.8 mph - N/A   Clear
6:52 PM 95.0 °F 97.4 °F 64.9 °F 37% 29.82 in 10.0 mi South 4.6 mph - N/A   Clear
7:52 PM 88.0 °F 89.6 °F 64.9 °F 46% 29.83 in 10.0 mi West 6.9 mph - N/A   Partly Cloudy
8:52 PM 84.0 °F 85.8 °F 64.9 °F 53% 29.86 in 10.0 mi WSW 8.1 mph - N/A Thunderstorm Mostly Cloudy
9:18 PM 77.0 °F - 71.6 °F 83% 29.90 in 10.0 mi East 6.9 mph - 0.02 in   Mostly Cloudy
9:52 PM 77.0 °F - 70.0 °F 79% 29.89 in 10.0 mi Calm Calm - 0.02 in   Clear
10:52 PM 78.1 °F - 68.0 °F 71% 29.90 in 10.0 mi Calm Calm - N/A   Clear
11:12 PM 75.2 °F - 71.6 °F 89% 29.94 in 10.0 mi NE 3.5 mph - N/A Thunderstorm Partly Cloudy
11:48 PM 77.0 °F - 69.8 °F 78% 29.94 in 10.0 mi NNE 3.5 mph - N/A   Clear
11:52 PM 77.0 °F - 69.1 °F 76% 29.91 in 10.0 mi NNE 4.6 mph - N/A   Clear